| time (UTC) | temp F | wind direction | speed MPH | gust MPH | rain 1hr in | rain 24hr in | rain mn in | humidity % | barometer mb |
| 20260906204515 | 60 | 232 | 4.0 | 8.0 | 0.00 | 0.00 | 0.00 | 85 | 1021.9 |
| 20260906202516 | 60 | 240 | 3.0 | 6.0 | 0.00 | 0.00 | 0.00 | 84 | 1021.8 |
| 20260906194514 | 61 | 233 | 5.0 | 10.0 | 0.00 | 0.00 | 0.00 | 83 | 1021.8 |
| 20260906190514 | 61 | 245 | 5.0 | 9.0 | 0.00 | 0.00 | 0.00 | 82 | 1021.9 |
| 20260906185514 | 61 | 247 | 6.0 | 9.0 | 0.00 | 0.00 | 0.00 | 82 | 1021.9 |
| 20260906183514 | 61 | 244 | 4.0 | 8.0 | 0.00 | 0.00 | 0.00 | 82 | 1022.0 |
| 20260906180514 | 62 | 240 | 5.0 | 8.0 | 0.00 | 0.00 | 0.00 | 78 | 1021.9 |
| 20260906175514 | 62 | 313 | 4.0 | 12.0 | 0.00 | 0.00 | 0.00 | 78 | 1021.9 |
| 20260906173514 | 62 | 255 | 3.0 | 7.0 | 0.00 | 0.00 | 0.00 | 78 | 1021.8 |
| 20260906172514 | 62 | 256 | 3.0 | 10.0 | 0.00 | 0.00 | 0.00 | 77 | 1021.9 |
| 20260906170514 | 63 | 251 | 3.0 | 7.0 | 0.00 | 0.00 | 0.00 | 77 | 1021.9 |
| 20260906164514 | 63 | 269 | 3.0 | 7.0 | 0.00 | 0.00 | 0.00 | 75 | 1022.0 |
| 20260906163514 | 63 | 306 | 6.0 | 8.0 | 0.00 | 0.00 | 0.00 | 75 | 1022.1 |
| 20260906162514 | 63 | 312 | 2.0 | 7.0 | 0.00 | 0.00 | 0.00 | 75 | 1022.0 |
| 20260906161514 | 63 | 273 | 6.0 | 8.0 | 0.00 | 0.00 | 0.00 | 73 | 1022.2 |
| 20260906155514 | 64 | 268 | 6.0 | 13.0 | 0.00 | 0.00 | 0.00 | 71 | 1022.0 |
| 20260906154514 | 64 | 267 | 6.0 | 13.0 | 0.00 | 0.00 | 0.00 | 70 | 1022.0 |
| 20260906152515 | 67 | 267 | 9.0 | 14.0 | 0.00 | 0.00 | 0.00 | 65 | 1022.0 |
| 20260906151515 | 67 | 294 | 5.0 | 16.0 | 0.00 | 0.00 | 0.00 | 67 | 1021.9 |
| 20260906150514 | 66 | 286 | 10.0 | 15.0 | 0.00 | 0.00 | 0.00 | 65 | 1021.9 |
| 20260906145514 | 66 | 266 | 9.0 | 16.0 | 0.00 | 0.00 | 0.00 | 66 | 1022.1 |
| 20260906143514 | 67 | 286 | 7.0 | 16.0 | 0.00 | 0.00 | 0.00 | 66 | 1022.0 |
| 20260906142514 | 66 | 247 | 9.0 | 16.0 | 0.00 | 0.00 | 0.00 | 67 | 1022.1 |
| 20260906140516 | 66 | 264 | 14.0 | 20.0 | 0.00 | 0.00 | 0.00 | 66 | 1022.0 |
| 20260906134515 | 65 | 246 | 17.0 | 23.0 | 0.00 | 0.00 | 0.00 | 69 | 1021.9 |
| 20260906132514 | 64 | 255 | 12.0 | 17.0 | 0.00 | 0.00 | 0.00 | 69 | 1021.9 |
| 20260906131514 | 65 | 279 | 10.0 | 17.0 | 0.00 | 0.00 | 0.00 | 68 | 1022.0 |
| 20260906130514 | 65 | 277 | 12.0 | 20.0 | 0.00 | 0.00 | 0.00 | 70 | 1022.0 |
| 20260906121515 | 65 | 242 | 14.0 | 22.0 | 0.00 | 0.00 | 0.00 | 70 | 1021.9 |
| 20260906115515 | 65 | 274 | 14.0 | 21.0 | 0.00 | 0.00 | 0.00 | 71 | 1021.8 |
| 20260906103515 | 64 | 298 | 9.0 | 17.0 | 0.00 | 0.00 | 0.00 | 74 | 1021.3 |
| 20260906102513 | 64 | 335 | 13.0 | 20.0 | 0.00 | 0.00 | 0.00 | 74 | 1021.2 |
| 20260906095513 | 63 | 273 | 12.0 | 20.0 | 0.00 | 0.00 | 0.00 | 75 | 1020.8 |
| 20260906094515 | 63 | 284 | 13.0 | 18.0 | 0.00 | 0.00 | 0.00 | 77 | 1020.7 |
| 20260906092514 | 62 | 298 | 10.0 | 18.0 | 0.00 | 0.00 | 0.00 | 77 | 1020.6 |
| 20260906091514 | 63 | 303 | 13.0 | 18.0 | 0.00 | 0.00 | 0.00 | 76 | 1020.4 |
| 20260906085514 | 63 | 285 | 13.0 | 18.0 | 0.00 | 0.00 | 0.00 | 76 | 1020.3 |
| 20260906084515 | 62 | 294 | 9.0 | 22.0 | 0.00 | 0.00 | 0.00 | 78 | 1020.2 |
| 20260906081514 | 61 | 297 | 12.0 | 16.0 | 0.00 | 0.00 | 0.00 | 79 | 1020.0 |
| 20260906075514 | 61 | 336 | 10.0 | 22.0 | 0.00 | 0.00 | 0.00 | 81 | 1019.8 |
| 20260906074515 | 60 | 281 | 12.0 | 17.0 | 0.00 | 0.00 | 0.00 | 81 | 1019.6 |
| 20260906073514 | 59 | 295 | 11.0 | 18.0 | 0.00 | 0.00 | 0.00 | 81 | 1019.6 |
| 20260906072514 | 59 | 291 | 10.0 | 20.0 | 0.00 | 0.00 | 0.00 | 82 | 1019.5 |
| 20260906071514 | 59 | 295 | 9.0 | 18.0 | 0.00 | 0.00 | 0.00 | 82 | 1019.4 |
| 20260906063515 | 59 | 303 | 14.0 | 23.0 | 0.00 | 0.00 | 0.00 | 82 | 1018.8 |
| 20260906062514 | 59 | 294 | 14.0 | 22.0 | 0.00 | 0.00 | 0.00 | 82 | 1018.7 |
| 20260906055514 | 58 | 290 | 10.0 | 22.0 | 0.00 | 0.00 | 0.00 | 83 | 1018.4 |
| 20260906053515 | 58 | 288 | 10.0 | 16.0 | 0.00 | 0.00 | 0.00 | 84 | 1018.1 |
| 20260906052514 | 58 | 308 | 12.0 | 20.0 | 0.00 | 0.00 | 0.00 | 84 | 1018.0 |
| 20260906050514 | 58 | 302 | 11.0 | 20.0 | 0.00 | 0.00 | 0.00 | 84 | 1017.8 |
| 20260906045514 | 58 | 292 | 12.0 | 23.0 | 0.00 | 0.00 | 0.00 | 83 | 1017.6 |
| 20260906043514 | 58 | 270 | 13.0 | 18.0 | 0.00 | 0.00 | 0.00 | 84 | 1017.4 |
| 20260906042514 | 58 | 302 | 15.0 | 21.0 | 0.00 | 0.00 | 0.00 | 84 | 1017.3 |
| 20260906033513 | 58 | 288 | 11.0 | 20.0 | 0.00 | 0.00 | 0.00 | 83 | 1016.3 |
| 20260906032514 | 58 | 302 | 12.0 | 17.0 | 0.00 | 0.00 | 0.00 | 84 | 1016.3 |
| 20260906031514 | 58 | 301 | 12.0 | 17.0 | 0.00 | 0.00 | 0.00 | 84 | 1016.1 |
| 20260906030515 | 58 | 291 | 8.0 | 20.0 | 0.00 | 0.00 | 0.00 | 84 | 1016.0 |
| 20260906022514 | 58 | 290 | 13.0 | 22.0 | 0.00 | 0.00 | 0.00 | 83 | 1015.6 |
| 20260906021516 | 58 | 314 | 12.0 | 21.0 | 0.00 | 0.00 | 0.00 | 84 | 1015.6 |
| 20260906012514 | 58 | 298 | 14.0 | 25.0 | 0.00 | 0.00 | 0.00 | 83 | 1015.1 |
| 20260906011515 | 58 | 285 | 15.0 | 21.0 | 0.00 | 0.00 | 0.00 | 83 | 1015.0 |
| 20260906005514 | 59 | 297 | 16.0 | 25.0 | 0.00 | 0.00 | 0.00 | 83 | 1014.8 |
| 20260905233515 | 59 | 319 | 12.0 | 24.0 | 0.00 | 0.00 | 0.00 | 82 | 1013.7 |
| 20260905232514 | 59 | 303 | 15.0 | 22.0 | 0.00 | 0.00 | 0.00 | 81 | 1013.7 |
| 20260905230516 | 59 | 300 | 16.0 | 23.0 | 0.00 | 0.00 | 0.00 | 81 | 1013.5 |
| 20260905224516 | 60 | 301 | 27.0 | 28.0 | 0.00 | 0.00 | 0.00 | 81 | 1013.3 |
| 20260905222514 | 60 | 300 | 18.0 | 25.0 | 0.00 | 0.00 | 0.00 | 81 | 1012.8 |
| 20260905221510 | 60 | 279 | 15.0 | 26.0 | 0.00 | 0.00 | 0.00 | 81 | 1012.7 |
| 20260905220514 | 60 | 289 | 13.0 | 25.0 | 0.00 | 0.00 | 0.00 | 80 | 1012.5 |
| 20260905215514 | 60 | 296 | 14.0 | 24.0 | 0.00 | 0.00 | 0.00 | 80 | 1012.3 |
| 20260905213514 | 60 | 276 | 14.0 | 30.0 | 0.00 | 0.00 | 0.00 | 79 | 1012.2 |
| 20260905211515 | 60 | 283 | 16.0 | 26.0 | 0.00 | 0.00 | 0.00 | 80 | 1011.9 |